Weather reports worldwide

Advertisment
Burlington, nc, United States of America (2072075): temperature & dewpoint: 07.12.2019 20:00:00 - 13.12.2019 20:00:00 (EST)Burlington, nc, United States of America (2072075): wind speed: 07.12.2019 20:00:00 - 13.12.2019 20:00:00 (EST)Burlington, nc, United States of America (2072075): wind direction: 07.12.2019 20:00:00 - 13.12.2019 20:00:00 (EST)Burlington, nc, United States of America (2072075): reduced air pressure: 07.12.2019 20:00:00 - 13.12.2019 20:00:00 (EST)Burlington, nc, United States of America (2072075): visibility: 07.12.2019 20:00:00 - 13.12.2019 20:00:00 (EST)Burlington, nc, United States of America (2072075): precipitation: 07.12.2019 20:00:00 - 13.12.2019 20:00:00 (EST)
Date & Time tt [°C] td [°C] ff [km/h] ff [kn] dd ppp [hPa] vv [km] rr [mm]
13.12.2019 20:00:00 5,0 3,3 8 4 NNW 1012,3 16 1,0
13.12.2019 19:00:00 4,4 2,8 9 5 N 1012,8 15 1,0
13.12.2019 18:00:00 4,4 2,8 8 4 N 1014,2 10 1,0
13.12.2019 17:00:00 3,9 2,8 15 8 E 1014,9 10 -
13.12.2019 16:00:00 3,9 2,2 13 7 NNE 1016,3 4,8 1,0
13.12.2019 15:00:00 3,9 2,8 8 4 NNW 1017,2 4,8 0,3
13.12.2019 14:00:00 3,9 2,2 8 4 NNE 1017,7 10 -
13.12.2019 13:00:00 3,3 1,7 8 4 NNW 1019,7 10 -
13.12.2019 12:00:00 2,8 1,1 11 6 N 1021,6 6 0,5
13.12.2019 11:00:00 2,8 1,1 9 5 NNE 1023,3 4,8 -
13.12.2019 10:00:00 2,2 0,6 8 4 NNE 1024,3 4,8 0,0
13.12.2019 09:00:00 1,7 0,0 9 5 NNE 1025,1 4,0 0,5
13.12.2019 08:00:00 1,7 0,0 11 6 NNE 1025,9 8 0,5
13.12.2019 07:00:00 1,7 -0,6 13 7 NE 1025,9 11 0,5
13.12.2019 06:00:00 2,2 -1,1 9 5 N 1026,6 16 0,0
13.12.2019 05:00:00 2,2 -1,1 13 7 NE 1026,6 16 0,0
13.12.2019 04:00:00 2,2 -1,1 11 6 NNE 1027,7 16 0,0
13.12.2019 03:00:00 2,8 -1,7 13 7 N 1028,5 16 0,0
13.12.2019 02:00:00 3,3 -3,3 9 5 NNE 1029,2 16 -
13.12.2019 01:00:00 3,3 -3,9 11 6 NNE 1030,2 16 -
13.12.2019 00:00:00 3,3 -4,4 9 5 NE 1031,8 16 -
12.12.2019 23:00:00 3,3 -5,0 11 6 NE 1032,6 16 -
12.12.2019 22:00:00 2,8 -5,0 13 7 NE 1032,9 16 -
12.12.2019 21:00:00 2,2 -5,6 0 0 N 1034,0 16 -
12.12.2019 20:00:00 2,2 -6,1 9 5 NE 1034,2 16 -
12.12.2019 19:00:00 2,2 -6,1 8 4 NE 1034,6 16 -
12.12.2019 18:00:00 3,9 -6,7 8 4 ENE 1034,8 16 -
12.12.2019 17:00:00 5,6 -6,7 8 4 ENE 1034,7 16 -
12.12.2019 16:00:00 7,2 -6,7 9 5 ENE 1035,0 16 -
12.12.2019 15:00:00 7,2 -6,7 11 6 ENE 1035,4 16 -
12.12.2019 14:00:00 7,2 -6,7 9 5 ENE 1036,0 16 -
12.12.2019 13:00:00 6,7 -6,7 11 6 E 1037,1 16 -
12.12.2019 12:00:00 6,1 -6,1 9 5 - 1038,2 16 -
12.12.2019 11:00:00 4,4 -6,1 15 8 NE 1039,3 16 -
12.12.2019 10:00:00 2,8 -6,7 13 7 E 1039,5 16 -
12.12.2019 09:00:00 1,1 -6,1 11 6 E 1039,0 16 -
12.12.2019 08:00:00 -1,1 -6,1 8 4 NNE 1038,5 16 -
12.12.2019 07:00:00 -1,7 -6,1 8 4 NE 1037,6 16 -
12.12.2019 06:00:00 -1,1 -6,1 11 6 NNE 1037,3 16 -
12.12.2019 05:00:00 -0,6 -6,1 9 5 N 1036,5 16 -
12.12.2019 04:00:00 -0,6 -5,6 9 5 NNW 1036,2 16 -
12.12.2019 03:00:00 -2,8 -5,6 0 0 N 1035,7 16 -
12.12.2019 02:00:00 -1,1 -4,4 8 4 WNW 1034,9 16 -
12.12.2019 01:00:00 -2,8 -4,4 0 0 N 1034,4 16 -
12.12.2019 00:00:00 -1,7 -3,3 0 0 N 1034,2 16 -
11.12.2019 23:00:00 -1,1 -3,3 8 4 SW 1034,1 16 -
11.12.2019 22:00:00 -1,1 -3,9 0 0 N 1033,8 16 -
11.12.2019 21:00:00 -0,6 -3,9 0 0 N 1033,4 16 -
11.12.2019 20:00:00 0,0 -3,3 0 0 N 1033,3 16 -
11.12.2019 19:00:00 1,7 -4,4 0 0 N 1032,7 16 -
11.12.2019 18:00:00 4,4 -6,1 0 0 N 1031,7 16 -
11.12.2019 17:00:00 5,0 -6,7 8 4 WSW 1031,2 16 -
11.12.2019 16:00:00 6,7 -7,2 11 6 W 1031,0 16 -
11.12.2019 15:00:00 6,7 -7,8 13 7 NNW 1030,1 16 -
11.12.2019 14:00:00 7,2 -7,8 16 9 WNW 1029,4 16 -
11.12.2019 13:00:00 7,2 -7,2 21 11 WNW 1029,6 16 -
11.12.2019 12:00:00 6,7 -6,7 22 12 NW 1029,8 16 -
11.12.2019 11:00:00 6,1 -6,7 18 10 NNW 1029,8 16 -
11.12.2019 10:00:00 5,0 -6,7 21 11 N 1029,5 16 -
11.12.2019 09:00:00 3,9 -5,0 15 8 N 1028,9 16 -
11.12.2019 08:00:00 3,3 -3,3 13 7 N 1028,3 16 0,3
11.12.2019 07:00:00 3,9 -0,6 15 8 NNW 1027,2 16 0,5
11.12.2019 06:00:00 4,4 0,6 16 9 NNW 1025,6 16 0,3
11.12.2019 05:00:00 5,0 1,7 11 6 N 1024,5 16 0,8
11.12.2019 04:00:00 5,0 2,8 9 5 N 1023,8 11 0,8
11.12.2019 03:00:00 6,1 3,9 15 8 N 1022,9 15 0,8
11.12.2019 02:00:00 6,1 3,9 18 10 N 1022,4 8 0,3
11.12.2019 01:00:00 7,2 5,0 13 7 NNW 1021,9 13 0,3
11.12.2019 00:00:00 8,9 6,7 5 3 N 1021,0 13 0,8
10.12.2019 23:00:00 8,9 7,2 8 4 N 1020,5 16 1,0
10.12.2019 22:00:00 9,4 7,8 8 4 N 1020,5 4,8 1,0
10.12.2019 21:00:00 11,1 7,8 11 6 NW 1019,9 16 1,0
10.12.2019 20:00:00 11,1 8,9 5 3 NNW 1019,0 10 1,0
10.12.2019 19:00:00 12,2 10,0 9 5 NNW 1018,4 4,8 0,5
10.12.2019 18:00:00 13,3 10,6 18 10 NNW 1017,2 16 0,0
10.12.2019 17:00:00 15,0 12,8 15 8 WNW 1015,3 13 0,3
10.12.2019 16:00:00 15,6 13,3 9 5 WNW 1014,1 16 0,8
10.12.2019 15:00:00 16,1 13,9 13 7 W 1013,6 16 1,0
10.12.2019 14:00:00 16,7 14,4 16 9 W 1013,2 6 1,0
10.12.2019 13:00:00 20,0 16,1 21 11 SW 1012,9 16 0,0
10.12.2019 12:00:00 20,0 16,1 21 11 SSW 1013,2 16 0,0
10.12.2019 11:00:00 19,4 15,0 13 7 S 1013,7 16 -
10.12.2019 10:00:00 18,9 14,4 18 10 S 1014,1 16 -
10.12.2019 09:00:00 17,2 13,9 16 9 SSW 1014,2 16 -
10.12.2019 08:00:00 16,1 13,3 18 10 SSW 1014,4 16 -
10.12.2019 07:00:00 16,1 13,3 18 10 SSW 1014,4 16 -
10.12.2019 06:00:00 15,6 13,3 15 8 SSW 1014,0 16 -
10.12.2019 05:00:00 15,6 13,3 15 8 SSW 1013,8 16 -
10.12.2019 04:00:00 14,4 12,2 5 3 SW 1013,8 16 -
10.12.2019 03:00:00 13,9 11,7 9 5 SSW 1013,8 16 -
10.12.2019 02:00:00 13,9 11,1 11 6 SSW 1014,2 16 -
10.12.2019 01:00:00 13,9 11,1 13 7 SW 1014,4 15 -
10.12.2019 00:00:00 13,9 11,1 9 5 SSW 1014,7 15 -
09.12.2019 23:00:00 13,9 10,6 22 12 SW 1014,9 16 -
09.12.2019 22:00:00 14,4 11,1 16 9 SSW 1014,9 16 -
09.12.2019 21:00:00 12,8 10,0 11 6 SSW 1015,1 16 -
09.12.2019 20:00:00 11,1 7,8 9 5 WSW 1015,3 16 -
09.12.2019 19:00:00 11,1 7,2 8 4 SSW 1014,7 16 -
09.12.2019 18:00:00 11,1 7,8 9 5 W 1014,5 16 0,0
09.12.2019 17:00:00 12,2 7,8 11 6 W 1014,6 16 -
09.12.2019 16:00:00 15,0 10,0 9 5 SW 1014,2 16 -
09.12.2019 15:00:00 15,0 8,9 13 7 SSW 1014,1 16 -
09.12.2019 14:00:00 12,8 7,2 8 4 WSW 1015,2 16 -
09.12.2019 13:00:00 11,7 6,1 5 3 S 1016,3 16 -
09.12.2019 12:00:00 10,0 5,6 8 4 SSE 1017,6 16 -
09.12.2019 11:00:00 7,8 4,4 0 0 N 1019,2 16 -
09.12.2019 10:00:00 6,7 3,3 0 0 N 1020,2 16 -
09.12.2019 09:00:00 6,1 2,2 0 0 N 1020,5 13 0,0
09.12.2019 08:00:00 5,6 0,0 8 4 WSW 1020,6 16 -
09.12.2019 07:00:00 5,6 -1,7 0 0 N 1020,9 16 -
09.12.2019 06:00:00 5,0 -2,2 0 0 N 1020,5 16 -
09.12.2019 05:00:00 5,0 -2,2 0 0 N 1021,4 16 -
09.12.2019 04:00:00 5,6 -3,3 5 3 E 1021,9 16 -
09.12.2019 03:00:00 5,6 -3,3 5 3 WNW 1022,9 16 -
09.12.2019 02:00:00 4,4 -3,3 5 3 ENE 1023,0 16 -
09.12.2019 01:00:00 5,6 -3,9 5 3 WNW 1024,3 16 -
09.12.2019 00:00:00 5,6 -4,4 5 3 NNE 1024,6 16 -
08.12.2019 23:00:00 5,0 -4,4 9 5 NNW 1025,6 16 -
08.12.2019 22:00:00 5,0 -3,9 9 5 N 1026,5 16 -
08.12.2019 21:00:00 4,4 -3,3 11 6 NNW 1025,9 16 -
08.12.2019 20:00:00 3,9 -2,8 9 5 NW 1027,1 16 -
08.12.2019 19:00:00 4,4 -2,2 8 4 N 1026,8 16 -
08.12.2019 18:00:00 5,6 -2,2 0 0 N 1026,9 16 -
08.12.2019 17:00:00 8,9 -3,3 5 3 E 1027,0 16 -
08.12.2019 16:00:00 10,0 -3,3 11 6 E 1027,1 16 -
08.12.2019 15:00:00 10,6 -3,3 8 4 - 1028,4 16 -
08.12.2019 14:00:00 10,6 -3,3 11 6 N 1029,0 16 -
08.12.2019 13:00:00 9,4 -4,4 5 3 - 1029,4 16 -
08.12.2019 12:00:00 9,4 -3,3 9 5 N 1030,7 16 -
08.12.2019 11:00:00 6,7 -2,2 13 7 E 1031,7 16 -
08.12.2019 10:00:00 4,4 -3,3 11 6 NE 1032,4 16 -
08.12.2019 09:00:00 2,2 -2,8 8 4 NNE 1032,6 16 -
08.12.2019 08:00:00 -1,1 -4,4 5 3 N 1032,4 16 -
08.12.2019 07:00:00 -2,8 -5,6 0 0 N 1032,1 16 -
08.12.2019 06:00:00 -3,3 -6,1 0 0 N 1031,6 16 -
08.12.2019 05:00:00 -1,1 -5,0 0 0 N 1031,4 16 -
08.12.2019 04:00:00 -2,2 -5,0 5 3 NNE 1031,1 16 -
08.12.2019 03:00:00 -0,6 -4,4 5 3 NNE 1031,6 16 -
08.12.2019 02:00:00 -0,6 -4,4 5 3 NNE 1031,5 16 -
08.12.2019 01:00:00 0,6 -4,4 0 0 N 1030,8 16 -
08.12.2019 00:00:00 0,0 -3,3 5 3 NNE 1030,7 16 -
07.12.2019 23:00:00 0,6 -3,3 5 3 N 1030,5 16 -
07.12.2019 22:00:00 2,2 -2,8 0 0 N 1030,2 16 -
07.12.2019 21:00:00 3,3 -2,8 0 0 N 1029,9 16 -
07.12.2019 20:00:00 4,4 -2,2 8 4 NE 1029,5 16 -

tt = temperature
td = dewpoint
ff = wind speed
dd = wind direction
ppp = reduced air pressure
vv = visibility
rr = precipitation

Next stations